Lid_Strength_Index
8 8 9 10 11 11 11 12 12 12 12 12 12 12 12 12 11 11 10 7 5 4 2 2 2 1 1 1 1 0 -1 -1 -0 0 0 -0 0 -1 -0 -2 -2 -2 -2
9 9 11 12 12 12 12 12 12 12 12 12 13 13 13 12 12 11 11 8 6 5 4 3 3 2 2 2 1 2 1 2 1 1 2 1 1 0 -0 -1 -1 -1 -1
10 10 11 12 12 12 12 13 13 13 13 13 13 13 13 12 12 12 11 11 8 5 5 4 4 3 2 3 2 1 2 1 1 2 3 2 2 2 1 1 0 0 -1
10 11 11 12 12 13 12 13 13 14 14 13 14 14 13 12 12 12 12 12 11 12 10 8 6 4 5 4 4 4 2 2 3 3 2 2 2 2 2 2 1 1 1
11 11 12 12 13 13 13 14 14 14 14 14 14 13 13 12 13 13 13 13 13 13 12 10 9 8 7 7 5 4 4 4 4 4 4 3 3 2 2 1 1 1 2
11 11 12 13 13 14 14 14 14 14 14 14 15 14 13 14 13 13 13 14 13 13 13 13 12 11 9 7 6 5 4 4 4 4 4 3 3 3 3 3 2 2 2
11 11 12 13 14 14 14 14 14 14 15 15 14 14 14 14 14 13 13 14 14 14 14 13 13 12 11 8 7 5 4 4 4 5 5 5 4 4 4 4 3 3 3
12 12 13 14 14 14 15 15 14 15 15 15 14 14 15 14 14 14 14 14 15 14 14 14 13 13 12 11 8 7 7 6 6 6 6 6 6 5 5 4 4 4 3
13 13 13 14 15 15 15 15 14 14 15 16 15 13 16 14 15 15 15 14 15 15 14 14 14 14 13 11 10 10 9 9 8 8 7 7 6 6 5 5 5 4 4
13 13 13 14 14 15 15 15 15 14 14 15 15 16 16 15 15 16 16 15 15 15 15 15 14 14 13 11 12 11 11 11 10 10 9 8 8 7 6 6 5 5 5
13 14 14 14 15 15 14 15 16 16 15 14 15 16 16 16 16 16 16 16 16 15 15 15 14 13 12 13 13 12 12 12 11 11 10 10 9 8 7 7 6 6 5
14 14 14 14 14 15 15 15 15 15 15 15 15 15 16 16 17 16 17 17 17 16 16 15 14 13 14 14 14 15 14 13 13 12 11 11 10 9 9 8 7 6 6
15 15 15 15 15 15 15 15 15 15 15 16 15 15 16 16 16 16 16 17 17 17 16 15 15 14 15 15 16 16 16 15 14 12 12 12 11 10 9 9 8 7 6
14 14 15 15 15 15 15 15 15 15 16 16 16 16 16 16 16 16 16 17 18 18 17 17 15 15 16 16 17 17 17 17 14 13 13 12 11 10 10 9 8 8 7
14 14 15 15 16 16 16 16 16 16 16 16 16 16 16 16 16 16 16 16 15 18 18 17 17 16 16 17 17 17 18 18 16 15 14 13 12 11 10 10 9 8 7
15 16 15 15 16 16 16 16 16 16 17 17 17 17 17 17 17 16 16 16 17 16 18 18 17 17 17 18 17 17 18 17 17 16 15 13 12 11 10 9 9 8 7
15 16 16 16 16 17 17 17 16 17 17 17 17 17 17 17 17 17 17 17 17 18 18 20 19 18 18 18 18 18 18 17 17 16 14 13 11 11 10 10 9 8 8
15 15 16 16 16 17 17 17 17 17 17 18 18 18 18 18 18 18 18 18 18 18 19 19 20 19 19 19 19 19 18 17 16 15 13 12 12 11 11 10 10 9 9
15 15 16 16 16 16 16 16 16 17 17 17 18 18 18 19 20 19 19 20 20 20 19 20 20 20 20 19 19 18 17 16 16 14 13 13 12 12 11 11 10 10 10
15 15 16 16 16 16 16 16 17 17 17 17 17 18 18 19 19 20 20 20 21 21 21 21 21 21 21 19 19 18 17 16 16 15 14 14 13 13 12 11 11 11 11
14 14 15 15 15 16 16 16 17 17 17 18 18 18 18 18 18 19 20 21 21 21 21 22 22 21 20 20 19 18 18 17 15 14 15 14 14 14 14 13 13 12 11
13 14 14 15 16 16 14 14 16 17 17 18 19 18 18 18 17 17 17 18 19 22 22 21 21 21 20 19 18 18 18 17 17 14 16 16 15 15 14 14 13 12 11
13 14 14 15 16 15 13 13 13 16 17 17 18 19 19 19 18 18 17 17 17 17 19 20 20 19 19 18 18 18 17 17 18 16 17 18 15 16 14 14 13 12 12
14 14 14 14 15 15 13 12 13 15 17 17 18 18 19 20 19 19 18 18 19 18 19 18 18 18 17 17 17 16 17 18 18 18 17 19 16 17 16 15 13 12 12
15 14 14 14 15 15 13 12 12 15 17 17 18 18 18 19 18 17 18 19 19 19 16 16 15 15 15 15 15 18 20 21 21 19 18 19 18 18 17 16 14 13 12
16 15 15 15 15 15 13 12 11 13 17 18 18 19 18 19 17 16 18 19 20 19 18 17 17 15 15 17 17 18 19 22 21 22 18 19 19 18 20 17 15 15 15